Weather in Alovo

Russia / Republic of Mordovia     54°37′52″N   46°26′17″E
temp.,
°C
wind,
m/s
gust,
m/s
humid.,
%
clouds,
%
prec.,
mm/h
press.,
hPa
HPBL,
m
7 march, sun
sun700:00−14wsw229880 0.0 101320
03:00−16w229857 0.0 101320
06:00−16wsw239760 0.0 101225
09:00−13sw489347 0.0 1011244
12:00−8sw6108773 0.0 1009572
15:00−7ssw7128386 0.0 1005765
18:00−7ssw81592100 0.5 1002936
21:00−5ssw81593100 1.1 9981027
8 march, mon
mon800:00−5ssw81590100 0.3 994772
03:00−3sw101690100 1.0 9921170
06:00−8wsw8178187 0.0 993559
09:00−8wsw8148963 0.0 997618
12:00−6wsw81284100 0.1 999948
15:00−6wsw598675 0.1 1000670
18:00−8ssw339094 0.0 100143
21:00−7wsw5109297 0.2 1002422
9 march, tue
tue900:00−11w5119439 0.0 1002239
03:00−13w479657 0.1 1004120
06:00−16w349787 0.0 100786
09:00−14wnw369591 0.1 1009245
12:00−11wnw359198 0.1 1010408
15:00−11nw468999 0.1 1011548
18:00−15nw359598 0.0 101288
21:00−15nw379698 0.1 1014206
10 march, wed
wed1000:00−18nw339895 0.1 101477
03:00−19nw359897 0.1 1016121
06:00−20nnw479799 0.1 1018251
09:00−20nnw5895100 0.1 1019350
12:00−19nw5792100 0.0 1021464
15:00−20nw589096 0.0 1022498
18:00−23nw349696 0.0 102378
21:00−25wnw349989 0.0 102558
11 march, thu
thu1100:00−26w349559 0.0 102556
03:00−26w349829 0.0 102663
06:00−23w499778 0.0 1026225
09:00−21w599580 0.1 1026281
12:00−15wnw6108993 0.0 1025423
15:00−11wnw6118550 0.0 1025487
18:00−14wnw4118659 0.0 1026269
21:00−17w479129 0.0 1028121